When you browse on this site, cookies collect data to enhance your experience and personalize the content and advertising you see.
Visit our Privacy Policy to learn more. By continuing to use the site, you agree to this use of cookies and data.
  • Em Portugal
  • Lista de países
  • Para 7 dias
  • Temperatura da água
  • Mapas de satélite
  • Mapa do tempo
  • Widgets de tempo
  • user-avatar
    Iniciar Sessão

    Previsão horária em Kornele

    Hoje, 18 Fevereiro, Segunda-feira

    Tempo Temperatura Precipitação Vento Pressão Humidade
    00:00 +5°C° 0 mm 1 m/s 758 mmHg 93%
    01:00 +4°C° 0 mm 1 m/s 758 mmHg 95%
    02:00 +3°C° 0 mm 1 m/s 758 mmHg 95%
    03:00 +3°C° 0 mm 1 m/s 757 mmHg 95%
    04:00 +2°C° 0 mm 0 m/s 757 mmHg 96%
    05:00 +3°C° 0 mm 1 m/s 757 mmHg 96%
    06:00 +3°C° 0 mm 1 m/s 757 mmHg 96%
    07:00 +3°C° 0 mm 1 m/s 757 mmHg 95%
    08:00 +4°C° 0 mm 1 m/s 757 mmHg 92%
    09:00 +4°C° 0 mm 2 m/s 757 mmHg 89%
    10:00 +5°C° 0 mm 2 m/s 757 mmHg 86%
    11:00 +5°C° 0 mm 3 m/s 757 mmHg 81%
    12:00 +7°C° 0 mm 3 m/s 757 mmHg 77%
    13:00 +8°C° 0 mm 3 m/s 756 mmHg 73%
    14:00 +8°C° 0 mm 3 m/s 756 mmHg 75%
    15:00 +8°C° 0 mm 3 m/s 756 mmHg 77%
    16:00 +8°C° 0 mm 3 m/s 755 mmHg 79%
    17:00 +7°C° 0 mm 3 m/s 755 mmHg 82%
    18:00 +5°C° 0 mm 3 m/s 755 mmHg 86%
    19:00 +4°C° 0 mm 4 m/s 754 mmHg 90%
    20:00 +4°C° 0 mm 4 m/s 754 mmHg 90%
    21:00 +4°C° 0 mm 4 m/s 754 mmHg 90%
    22:00 +3°C° 0 mm 4 m/s 753 mmHg 90%
    23:00 +3°C° 0 mm 4 m/s 753 mmHg 89%

    Amanhã, 19 Fevereiro, Terça-feira

    Tempo Temperatura Precipitação Vento Pressão Humidade
    00:00 +2°C° 0 mm 3 m/s 753 mmHg 88%
    01:00 +2°C° 0 mm 3 m/s 753 mmHg 87%
    02:00 +2°C° 0 mm 3 m/s 752 mmHg 86%
    03:00 +1°C° 0 mm 3 m/s 751 mmHg 85%
    04:00 0°C° 0 mm 4 m/s 751 mmHg 84%
    05:00 0°C° 0 mm 4 m/s 750 mmHg 83%
    06:00 0°C° 0 mm 4 m/s 750 mmHg 82%
    07:00 0°C° 0 mm 4 m/s 750 mmHg 81%
    08:00 +1°C° 0 mm 5 m/s 749 mmHg 77%
    09:00 +2°C° 0 mm 5 m/s 749 mmHg 73%
    10:00 +3°C° 0 mm 6 m/s 749 mmHg 69%
    11:00 +4°C° 0 mm 6 m/s 748 mmHg 68%
    12:00 +5°C° 0 mm 6 m/s 748 mmHg 66%
    13:00 +7°C° 0 mm 6 m/s 748 mmHg 64%
    14:00 +7°C° 0 mm 6 m/s 748 mmHg 68%
    15:00 +7°C° 0 mm 5 m/s 748 mmHg 71%
    16:00 +7°C° 0 mm 4 m/s 748 mmHg 75%
    17:00 +6°C° 0.3 mm 4 m/s 748 mmHg 79%
    18:00 +6°C° 0.3 mm 4 m/s 748 mmHg 83%
    19:00 +5°C° 0.3 mm 4 m/s 748 mmHg 87%
    20:00 +4°C° 0 mm 4 m/s 748 mmHg 87%
    21:00 +4°C° 0 mm 4 m/s 748 mmHg 87%
    22:00 +3°C° 0 mm 4 m/s 748 mmHg 88%
    23:00 +3°C° 0 mm 4 m/s 748 mmHg 87%

    Depois de amanhã, 20 Fevereiro, Quarta-feira

    Tempo Temperatura Precipitação Vento Pressão Humidade
    00:00 +2°C° 0 mm 5 m/s 748 mmHg 87%
    01:00 +2°C° 0 mm 5 m/s 748 mmHg 86%
    02:00 +2°C° 0 mm 5 m/s 748 mmHg 85%
    03:00 +2°C° 0 mm 5 m/s 748 mmHg 85%
    04:00 +2°C° 0 mm 6 m/s 749 mmHg 84%
    05:00 +2°C° 0.1 mm 6 m/s 749 mmHg 84%
    06:00 +2°C° 0.1 mm 6 m/s 749 mmHg 84%
    07:00 +2°C° 0.1 mm 6 m/s 749 mmHg 84%
    08:00 +2°C° 0.1 mm 6 m/s 750 mmHg 81%
    09:00 +2°C° 0.1 mm 6 m/s 750 mmHg 78%
    10:00 +3°C° 0.1 mm 7 m/s 750 mmHg 75%
    11:00 +3°C° 0 mm 7 m/s 751 mmHg 73%
    12:00 +4°C° 0 mm 7 m/s 751 mmHg 71%
    13:00 +4°C° 0 mm 7 m/s 751 mmHg 68%
    14:00 +4°C° 0 mm 6 m/s 752 mmHg 70%
    15:00 +4°C° 0 mm 6 m/s 752 mmHg 71%
    16:00 +4°C° 0 mm 6 m/s 752 mmHg 72%
    17:00 +3°C° 0 mm 5 m/s 752 mmHg 75%
    18:00 +3°C° 0 mm 5 m/s 753 mmHg 78%
    19:00 +3°C° 0 mm 4 m/s 753 mmHg 81%
    20:00 +3°C° 0 mm 4 m/s 753 mmHg 83%
    21:00 +3°C° 0 mm 3 m/s 753 mmHg 86%
    22:00 +3°C° 0 mm 3 m/s 754 mmHg 88%
    23:00 +3°C° 0.1 mm 3 m/s 754 mmHg 90%

    21 Fevereiro, Quinta-feira

    Tempo Temperatura Precipitação Vento Pressão Humidade
    00:00 +3°C° 0.1 mm 3 m/s 754 mmHg 92%
    01:00 +3°C° 0.1 mm 3 m/s 754 mmHg 94%
    02:00 +3°C° 0.6 mm 3 m/s 753 mmHg 94%
    03:00 +3°C° 0.6 mm 3 m/s 753 mmHg 94%
    04:00 +4°C° 0.6 mm 4 m/s 753 mmHg 94%
    05:00 +4°C° 0.4 mm 4 m/s 753 mmHg 94%
    06:00 +4°C° 0.4 mm 4 m/s 752 mmHg 93%
    07:00 +4°C° 0.4 mm 4 m/s 752 mmHg 93%
    08:00 +4°C° 0.8 mm 4 m/s 753 mmHg 93%
    09:00 +4°C° 0.8 mm 3 m/s 753 mmHg 94%
    10:00 +4°C° 0.8 mm 3 m/s 753 mmHg 94%
    11:00 +4°C° 0.3 mm 3 m/s 753 mmHg 93%
    12:00 +5°C° 0.3 mm 3 m/s 753 mmHg 92%
    13:00 +5°C° 0.3 mm 3 m/s 754 mmHg 91%
    14:00 +6°C° 0 mm 2 m/s 754 mmHg 91%
    15:00 +5°C° 0 mm 2 m/s 754 mmHg 92%
    16:00 +5°C° 0 mm 2 m/s 755 mmHg 92%
    17:00 +3°C° 0.1 mm 3 m/s 756 mmHg 91%
    18:00 +2°C° 0.1 mm 3 m/s 757 mmHg 89%
    19:00 0°C° 0.1 mm 4 m/s 757 mmHg 88%
    20:00 +1°C° 0 mm 3 m/s 758 mmHg 84%
    21:00 0°C° 0 mm 3 m/s 759 mmHg 80%
    22:00 -1°C° 0 mm 3 m/s 760 mmHg 76%
    23:00 -1°C° 0 mm 2 m/s 760 mmHg 75%

    22 Fevereiro, Sexta-feira

    Tempo Temperatura Precipitação Vento Pressão Humidade
    00:00 -1°C° 0 mm 2 m/s 761 mmHg 73%
    01:00 -2°C° 0 mm 2 m/s 762 mmHg 71%
    02:00 -2°C° 0 mm 2 m/s 763 mmHg 68%
    03:00 -2°C° 0 mm 2 m/s 763 mmHg 66%
    04:00 -4°C° 0 mm 3 m/s 764 mmHg 64%
    05:00 -3°C° 0 mm 2 m/s 765 mmHg 63%
    06:00 -3°C° 0 mm 2 m/s 765 mmHg 62%
    07:00 -3°C° 0 mm 2 m/s 766 mmHg 61%
    08:00 -2°C° 0 mm 2 m/s 767 mmHg 56%
    09:00 -1°C° 0 mm 2 m/s 768 mmHg 51%
    10:00 -1°C° 0 mm 3 m/s 768 mmHg 45%
    11:00 +1°C° 0 mm 2 m/s 769 mmHg 42%
    12:00 +2°C° 0 mm 2 m/s 769 mmHg 38%
    13:00 +2°C° 0 mm 2 m/s 769 mmHg 35%
    14:00 +3°C° 0 mm 1 m/s 770 mmHg 37%
    15:00 +3°C° 0 mm 1 m/s 770 mmHg 39%
    16:00 +2°C° 0 mm 0 m/s 770 mmHg 42%
    17:00 +3°C° 0 mm 1 m/s 770 mmHg 44%
    18:00 +2°C° 0 mm 1 m/s 771 mmHg 47%
    19:00 -1°C° 0 mm 2 m/s 771 mmHg 49%
    20:00 -1°C° 0 mm 2 m/s 771 mmHg 51%
    21:00 -1°C° 0 mm 2 m/s 771 mmHg 52%
    22:00 -1°C° 0 mm 3 m/s 771 mmHg 53%
    23:00 -1°C° 0 mm 3 m/s 771 mmHg 53%

    23 Fevereiro, Sábado

    Tempo Temperatura Precipitação Vento Pressão Humidade
    00:00 -2°C° 0 mm 4 m/s 771 mmHg 53%
    01:00 -2°C° 0 mm 4 m/s 771 mmHg 53%
    02:00 -2°C° 0 mm 4 m/s 770 mmHg 54%
    03:00 -2°C° 0 mm 4 m/s 770 mmHg 56%
    04:00 -2°C° 0 mm 4 m/s 770 mmHg 57%
    05:00 -2°C° 0 mm 4 m/s 769 mmHg 59%
    06:00 -2°C° 0 mm 4 m/s 769 mmHg 61%
    07:00 -2°C° 0 mm 4 m/s 769 mmHg 63%
    08:00 -1°C° 0 mm 5 m/s 768 mmHg 65%
    09:00 0°C° 0 mm 5 m/s 768 mmHg 68%
    10:00 +1°C° 0 mm 5 m/s 768 mmHg 71%
    11:00 +3°C° 0 mm 5 m/s 767 mmHg 74%
    12:00 +4°C° 0 mm 6 m/s 767 mmHg 78%
    13:00 +5°C° 0 mm 6 m/s 767 mmHg 81%
    14:00 +5°C° 0 mm 6 m/s 766 mmHg 84%
    15:00 +5°C° 0 mm 5 m/s 766 mmHg 86%
    16:00 +5°C° 0 mm 5 m/s 765 mmHg 88%
    17:00 +5°C° 0 mm 4 m/s 765 mmHg 90%
    18:00 +4°C° 0 mm 4 m/s 765 mmHg 91%
    19:00 +3°C° 0 mm 3 m/s 765 mmHg 92%
    20:00 +3°C° 0 mm 3 m/s 765 mmHg 91%
    21:00 +3°C° 0 mm 3 m/s 765 mmHg 91%
    22:00 +2°C° 0 mm 3 m/s 764 mmHg 90%
    23:00 +2°C° 0 mm 3 m/s 764 mmHg 90%
    Mostrar mais